contact:dominique.lefevre@mio.osupytheas.fr, maurice.libes@osupytheas.fr, didier.mallarino@osupytheas.fr
Project:EMSO http://www.emso-fr.org/EMSO-France
Depth: 2436.0 m
Title:EMSO Ligure Ouest : Data MII capteur MICROCAT
DateTime_Computer,Latitude,Longitude,Temperature,Conductivity,Pressure,DateTime_Instrument
DateTime_Computer,Latitude,Longitude,degC,S m-1,dbar,DateTime_Instrument
2020-08-09T00:01:25Z,42.805,6.029,13.3001,4.60021,2470.156,2020-8-09T02:02:13Z
2020-08-09T00:04:28Z,42.805,6.029,13.3001,4.60036,2470.194,2020-8-09T02:05:17Z
2020-08-09T00:07:31Z,42.805,6.029,13.3001,4.60051,2470.171,2020-8-09T02:08:20Z
2020-08-09T00:10:34Z,42.805,6.029,13.3009,4.60004,2470.217,2020-8-09T02:11:23Z
2020-08-09T00:13:38Z,42.805,6.029,13.3000,4.60012,2470.133,2020-8-09T02:14:26Z
2020-08-09T00:16:41Z,42.805,6.029,13.3005,4.60010,2470.133,2020-8-09T02:17:29Z
2020-08-09T00:19:44Z,42.805,6.029,13.2997,4.60025,2470.194,2020-8-09T02:20:33Z
2020-08-09T00:22:47Z,42.805,6.029,13.3006,4.60039,2470.171,2020-8-09T02:23:36Z
2020-08-09T00:25:50Z,42.805,6.029,13.3015,4.60041,2470.147,2020-8-09T02:26:39Z
2020-08-09T00:28:54Z,42.805,6.029,13.3007,4.60046,2470.156,2020-8-09T02:29:42Z
2020-08-09T00:31:57Z,42.805,6.029,13.3019,4.59998,2470.133,2020-8-09T02:32:45Z
2020-08-09T00:35:00Z,42.805,6.029,13.3023,4.60014,2470.194,2020-8-09T02:35:49Z
2020-08-09T00:38:03Z,42.805,6.029,13.2994,4.60031,2470.171,2020-8-09T02:38:52Z
2020-08-09T00:41:06Z,42.805,6.029,13.3008,4.60038,2470.171,2020-8-09T02:41:55Z
2020-08-09T00:44:10Z,42.805,6.029,13.2997,4.60022,2470.147,2020-8-09T02:44:58Z
2020-08-09T00:47:13Z,42.805,6.029,13.3024,4.60016,2470.194,2020-8-09T02:48:01Z
2020-08-09T00:50:16Z,42.805,6.029,13.3002,4.60021,2470.156,2020-8-09T02:51:05Z
2020-08-09T00:53:19Z,42.805,6.029,13.3015,4.60009,2470.171,2020-8-09T02:54:08Z
2020-08-09T00:56:22Z,42.805,6.029,13.3023,4.60025,2470.156,2020-8-09T02:57:11Z
2020-08-09T00:59:26Z,42.805,6.029,13.3021,4.60023,2470.147,2020-8-09T03:00:14Z
2020-08-09T01:02:29Z,42.805,6.029,13.3000,4.60022,2470.156,2020-8-09T03:03:17Z
2020-08-09T01:05:32Z,42.805,6.029,13.2998,4.60016,2470.156,2020-8-09T03:06:21Z
2020-08-09T01:08:35Z,42.805,6.029,13.3002,4.60023,2470.171,2020-8-09T03:09:24Z
2020-08-09T01:11:39Z,42.805,6.029,13.3007,4.60004,2470.171,2020-8-09T03:12:27Z
2020-08-09T01:14:42Z,42.805,6.029,13.2999,4.60019,2470.18,2020-8-09T03:15:30Z
2020-08-09T01:17:45Z,42.805,6.029,13.2987,4.60008,2470.147,2020-8-09T03:18:34Z
2020-08-09T01:20:48Z,42.805,6.029,13.2995,4.59990,2470.156,2020-8-09T03:21:37Z
2020-08-09T01:23:51Z,42.805,6.029,13.2994,4.60006,2470.133,2020-8-09T03:24:40Z
2020-08-09T01:26:55Z,42.805,6.029,13.3017,4.60007,2470.171,2020-8-09T03:27:43Z
2020-08-09T01:29:58Z,42.805,6.029,13.3033,4.60000,2470.147,2020-8-09T03:30:47Z
2020-08-09T01:33:01Z,42.805,6.029,13.3018,4.60016,2470.124,2020-8-09T03:33:50Z
2020-08-09T01:36:04Z,42.805,6.029,13.3015,4.60026,2470.147,2020-8-09T03:36:53Z
2020-08-09T01:39:08Z,42.805,6.029,13.3016,4.60004,2470.11,2020-8-09T03:39:56Z
2020-08-09T01:42:11Z,42.805,6.029,13.3025,4.60031,2470.133,2020-8-09T03:43:00Z
2020-08-09T01:45:14Z,42.805,6.029,13.2991,4.60018,2470.087,2020-8-09T03:46:03Z
2020-08-09T01:48:17Z,42.805,6.029,13.2991,4.60006,2470.133,2020-8-09T03:49:06Z
2020-08-09T01:51:20Z,42.805,6.029,13.3006,4.60000,2470.133,2020-8-09T03:52:09Z
2020-08-09T01:54:24Z,42.805,6.029,13.3011,4.60004,2470.124,2020-8-09T03:55:13Z
2020-08-09T01:57:27Z,42.805,6.029,13.2998,4.59996,2470.124,2020-8-09T03:58:16Z
2020-08-09T02:00:30Z,42.805,6.029,13.3025,4.60025,2470.1,2020-8-09T04:01:19Z
2020-08-09T02:03:34Z,42.805,6.029,13.3011,4.60015,2470.124,2020-8-09T04:04:22Z
2020-08-09T02:06:37Z,42.805,6.029,13.3016,4.59994,2470.124,2020-8-09T04:07:25Z
2020-08-09T02:09:40Z,42.805,6.029,13.3014,4.60027,2470.124,2020-8-09T04:10:29Z
2020-08-09T02:12:43Z,42.805,6.029,13.3004,4.60014,2470.124,2020-8-09T04:13:32Z
2020-08-09T02:15:46Z,42.805,6.029,13.3014,4.60014,2470.1,2020-8-09T04:16:35Z
2020-08-09T02:18:50Z,42.805,6.029,13.2993,4.60006,2470.11,2020-8-09T04:19:38Z
2020-08-09T02:21:53Z,42.805,6.029,13.3016,4.60020,2470.124,2020-8-09T04:22:42Z
2020-08-09T02:24:56Z,42.805,6.029,13.3002,4.60027,2470.087,2020-8-09T04:25:45Z
2020-08-09T02:27:59Z,42.805,6.029,13.3002,4.60019,2470.063,2020-8-09T04:28:48Z
2020-08-09T02:31:02Z,42.805,6.029,13.3030,4.60000,2470.087,2020-8-09T04:31:51Z
2020-08-09T02:34:06Z,42.805,6.029,13.3007,4.60013,2470.1,2020-8-09T04:34:54Z
2020-08-09T02:37:09Z,42.805,6.029,13.3012,4.60022,2470.124,2020-8-09T04:37:58Z
2020-08-09T02:40:12Z,42.805,6.029,13.3017,4.60007,2470.077,2020-8-09T04:41:01Z
2020-08-09T02:43:15Z,42.805,6.029,13.3016,4.60005,2470.087,2020-8-09T04:44:04Z
2020-08-09T02:46:19Z,42.805,6.029,13.3000,4.60014,2470.1,2020-8-09T04:47:07Z
2020-08-09T02:49:22Z,42.805,6.029,13.3021,4.60016,2470.063,2020-8-09T04:50:11Z
2020-08-09T02:52:25Z,42.805,6.029,13.3006,4.60019,2470.077,2020-8-09T04:53:14Z
2020-08-09T02:55:28Z,42.805,6.029,13.3024,4.60016,2470.1,2020-8-09T04:56:17Z
2020-08-09T02:58:32Z,42.805,6.029,13.2986,4.60009,2470.077,2020-8-09T04:59:20Z
2020-08-09T03:01:35Z,42.805,6.029,13.2990,4.60013,2470.1,2020-8-09T05:02:24Z
2020-08-09T03:04:38Z,42.805,6.029,13.3003,4.60009,2470.1,2020-8-09T05:05:27Z
2020-08-09T03:07:41Z,42.805,6.029,13.3026,4.60023,2470.11,2020-8-09T05:08:30Z
2020-08-09T03:10:45Z,42.805,6.029,13.3000,4.60030,2470.087,2020-8-09T05:11:33Z
2020-08-09T03:13:48Z,42.805,6.029,13.3008,4.59991,2470.077,2020-8-09T05:14:37Z
2020-08-09T03:16:51Z,42.805,6.029,13.2998,4.60013,2470.063,2020-8-09T05:17:40Z
2020-08-09T03:19:54Z,42.805,6.029,13.3001,4.59995,2470.087,2020-8-09T05:20:43Z
2020-08-09T03:22:57Z,42.805,6.029,13.2995,4.59995,2470.077,2020-8-09T05:23:46Z
2020-08-09T03:26:01Z,42.805,6.029,13.2991,4.59999,2470.04,2020-8-09T05:26:49Z
2020-08-09T03:29:04Z,42.805,6.029,13.2998,4.59996,2470.1,2020-8-09T05:29:53Z
2020-08-09T03:32:07Z,42.805,6.029,13.2996,4.59999,2470.04,2020-8-09T05:32:56Z
2020-08-09T03:35:10Z,42.805,6.029,13.3012,4.59996,2470.063,2020-8-09T05:35:59Z
2020-08-09T03:38:14Z,42.805,6.029,13.3002,4.60000,2470.063,2020-8-09T05:39:02Z
2020-08-09T03:41:17Z,42.805,6.029,13.3000,4.60011,2470.087,2020-8-09T05:42:06Z
2020-08-09T03:44:20Z,42.805,6.029,13.3003,4.60004,2470.087,2020-8-09T05:45:09Z
2020-08-09T03:47:23Z,42.805,6.029,13.2996,4.60004,2470.063,2020-8-09T05:48:12Z
2020-08-09T03:50:27Z,42.805,6.029,13.2995,4.59993,2470.063,2020-8-09T05:51:15Z
2020-08-09T03:53:30Z,42.805,6.029,13.2999,4.59999,2470.063,2020-8-09T05:54:18Z
2020-08-09T03:56:33Z,42.805,6.029,13.3005,4.60006,2470.04,2020-8-09T05:57:22Z
2020-08-09T03:59:36Z,42.805,6.029,13.3011,4.59999,2470.04,2020-8-09T06:00:25Z
2020-08-09T04:02:39Z,42.805,6.029,13.3000,4.59999,2470.087,2020-8-09T06:03:28Z
2020-08-09T04:05:43Z,42.805,6.029,13.3015,4.60011,2470.053,2020-8-09T06:06:31Z
2020-08-09T04:08:46Z,42.805,6.029,13.3006,4.60019,2470.063,2020-8-09T06:09:35Z
2020-08-09T04:11:49Z,42.805,6.029,13.3001,4.60001,2470.053,2020-8-09T06:12:38Z
2020-08-09T04:14:52Z,42.805,6.029,13.3012,4.60010,2470.04,2020-8-09T06:15:41Z
2020-08-09T04:17:55Z,42.805,6.029,13.3017,4.60008,2470.077,2020-8-09T06:18:44Z
2020-08-09T04:20:59Z,42.805,6.029,13.3006,4.60004,2470.077,2020-8-09T06:21:47Z
2020-08-09T04:24:02Z,42.805,6.029,13.3010,4.60008,2470.053,2020-8-09T06:24:51Z
2020-08-09T04:27:05Z,42.805,6.029,13.3021,4.59999,2470.077,2020-8-09T06:27:54Z
2020-08-09T04:30:09Z,42.805,6.029,13.3001,4.59996,2470.063,2020-8-09T06:30:57Z
2020-08-09T04:33:12Z,42.805,6.029,13.3004,4.59995,2470.04,2020-8-09T06:34:01Z
2020-08-09T04:36:15Z,42.805,6.029,13.3000,4.60010,2470.04,2020-8-09T06:37:04Z
2020-08-09T04:39:18Z,42.805,6.029,13.3006,4.60010,2470.053,2020-8-09T06:40:07Z
2020-08-09T04:42:22Z,42.805,6.029,13.3010,4.60003,2470.053,2020-8-09T06:43:10Z
2020-08-09T04:45:25Z,42.805,6.029,13.3022,4.60013,2470.053,2020-8-09T06:46:14Z
2020-08-09T04:48:28Z,42.805,6.029,13.3006,4.60002,2470.04,2020-8-09T06:49:17Z
2020-08-09T04:51:31Z,42.805,6.029,13.3016,4.60000,2470.053,2020-8-09T06:52:20Z
2020-08-09T04:54:35Z,42.805,6.029,13.3006,4.60006,2470.077,2020-8-09T06:55:23Z
2020-08-09T04:57:38Z,42.805,6.029,13.3010,4.60008,2470.04,2020-8-09T06:58:26Z
2020-08-09T05:00:41Z,42.805,6.029,13.3004,4.59995,2470.04,2020-8-09T07:01:30Z
2020-08-09T05:03:44Z,42.805,6.029,13.3007,4.60010,2470.053,2020-8-09T07:04:33Z
2020-08-09T05:06:47Z,42.805,6.029,13.2993,4.59993,2470.077,2020-8-09T07:07:36Z
2020-08-09T05:09:51Z,42.805,6.029,13.3001,4.60009,2470.063,2020-8-09T07:10:39Z
2020-08-09T05:12:54Z,42.805,6.029,13.2998,4.60009,2470.077,2020-8-09T07:13:43Z
2020-08-09T05:15:57Z,42.805,6.029,13.3004,4.60010,2470.063,2020-8-09T07:16:46Z
2020-08-09T05:19:01Z,42.805,6.029,13.3008,4.60010,2470.053,2020-8-09T07:19:49Z
2020-08-09T05:22:04Z,42.805,6.029,13.3006,4.60014,2470.04,2020-8-09T07:22:53Z
2020-08-09T05:25:07Z,42.805,6.029,13.3000,4.60003,2470.03,2020-8-09T07:25:56Z
2020-08-09T05:28:10Z,42.805,6.029,13.3023,4.60007,2470.053,2020-8-09T07:28:59Z
2020-08-09T05:31:14Z,42.805,6.029,13.3020,4.60002,2470.03,2020-8-09T07:32:02Z
2020-08-09T05:34:17Z,42.805,6.029,13.3015,4.59999,2470.04,2020-8-09T07:35:06Z
2020-08-09T05:37:20Z,42.805,6.029,13.3025,4.59992,2470.04,2020-8-09T07:38:09Z
2020-08-09T05:40:23Z,42.805,6.029,13.2996,4.60000,2470.077,2020-8-09T07:41:12Z
2020-08-09T05:43:27Z,42.805,6.029,13.3014,4.59997,2470.053,2020-8-09T07:44:15Z
2020-08-09T05:46:30Z,42.805,6.029,13.3009,4.60007,2470.053,2020-8-09T07:47:19Z
2020-08-09T05:49:33Z,42.805,6.029,13.3009,4.60006,2470.04,2020-8-09T07:50:22Z
2020-08-09T05:52:36Z,42.805,6.029,13.3007,4.60001,2470.053,2020-8-09T07:53:25Z
2020-08-09T05:55:39Z,42.805,6.029,13.3005,4.60004,2470.04,2020-8-09T07:56:28Z
2020-08-09T05:58:43Z,42.805,6.029,13.3003,4.60016,2470.063,2020-8-09T07:59:31Z
2020-08-09T06:01:46Z,42.805,6.029,13.3004,4.60010,2470.04,2020-8-09T08:02:35Z
2020-08-09T06:04:49Z,42.805,6.029,13.3025,4.60002,2470.077,2020-8-09T08:05:38Z
2020-08-09T06:07:52Z,42.805,6.029,13.3005,4.60005,2470.049,2020-8-09T08:08:41Z
2020-08-09T06:10:56Z,42.805,6.029,13.3028,4.59997,2470.04,2020-8-09T08:11:44Z
2020-08-09T06:13:59Z,42.805,6.029,13.3011,4.60003,2470.077,2020-8-09T08:14:48Z
2020-08-09T06:17:02Z,42.805,6.029,13.3002,4.60017,2470.04,2020-8-09T08:17:51Z
2020-08-09T06:20:05Z,42.805,6.029,13.3011,4.60015,2470.063,2020-8-09T08:20:54Z
2020-08-09T06:23:09Z,42.805,6.029,13.3011,4.60007,2470.04,2020-8-09T08:23:57Z
2020-08-09T06:26:12Z,42.805,6.029,13.3034,4.60021,2470.087,2020-8-09T08:27:01Z
2020-08-09T06:29:15Z,42.805,6.029,13.3021,4.60006,2470.053,2020-8-09T08:30:04Z
2020-08-09T06:32:18Z,42.805,6.029,13.3013,4.60024,2470.1,2020-8-09T08:33:07Z
2020-08-09T06:35:21Z,42.805,6.029,13.3007,4.60008,2470.063,2020-8-09T08:36:10Z
2020-08-09T06:38:25Z,42.805,6.029,13.3022,4.60015,2470.053,2020-8-09T08:39:14Z
2020-08-09T06:41:28Z,42.805,6.029,13.3027,4.60004,2470.087,2020-8-09T08:42:17Z
2020-08-09T06:44:31Z,42.805,6.029,13.3030,4.60007,2470.087,2020-8-09T08:45:20Z
2020-08-09T06:47:34Z,42.805,6.029,13.3027,4.60003,2470.063,2020-8-09T08:48:23Z
2020-08-09T06:50:38Z,42.805,6.029,13.3021,4.59996,2470.063,2020-8-09T08:51:26Z
2020-08-09T06:53:41Z,42.805,6.029,13.3018,4.60014,2470.053,2020-8-09T08:54:30Z
2020-08-09T06:56:44Z,42.805,6.029,13.3021,4.60020,2470.03,2020-8-09T08:57:33Z
2020-08-09T06:59:47Z,42.805,6.029,13.3012,4.60019,2470.04,2020-8-09T09:00:36Z
2020-08-09T07:02:50Z,42.805,6.029,13.3015,4.60005,2470.04,2020-8-09T09:03:39Z
2020-08-09T07:05:54Z,42.805,6.029,13.3019,4.60009,2470.077,2020-8-09T09:06:42Z
2020-08-09T07:08:57Z,42.805,6.029,13.3019,4.60008,2470.087,2020-8-09T09:09:46Z
2020-08-09T07:12:00Z,42.805,6.029,13.3012,4.60008,2470.1,2020-8-09T09:12:49Z
2020-08-09T07:15:03Z,42.805,6.029,13.3009,4.60001,2470.077,2020-8-09T09:15:52Z
2020-08-09T07:18:07Z,42.805,6.029,13.2998,4.60015,2470.087,2020-8-09T09:18:56Z
2020-08-09T07:21:10Z,42.805,6.029,13.3038,4.60010,2470.124,2020-8-09T09:21:59Z
2020-08-09T07:24:13Z,42.805,6.029,13.3031,4.60006,2470.124,2020-8-09T09:25:02Z
2020-08-09T07:27:17Z,42.805,6.029,13.3018,4.60004,2470.053,2020-8-09T09:28:06Z
2020-08-09T07:30:20Z,42.805,6.029,13.3007,4.60017,2470.11,2020-8-09T09:31:09Z
2020-08-09T07:33:24Z,42.805,6.029,13.3003,4.60008,2470.087,2020-8-09T09:34:12Z
2020-08-09T07:36:27Z,42.805,6.029,13.3019,4.60011,2470.063,2020-8-09T09:37:16Z
2020-08-09T07:39:30Z,42.805,6.029,13.3011,4.60001,2470.1,2020-8-09T09:40:19Z
2020-08-09T07:42:33Z,42.805,6.029,13.3014,4.60003,2470.096,2020-8-09T09:43:22Z
2020-08-09T07:45:37Z,42.805,6.029,13.3019,4.60007,2470.077,2020-8-09T09:46:25Z
2020-08-09T07:48:40Z,42.805,6.029,13.3011,4.60016,2470.1,2020-8-09T09:49:29Z
2020-08-09T07:51:43Z,42.805,6.029,13.3014,4.60005,2470.063,2020-8-09T09:52:32Z
2020-08-09T07:54:46Z,42.805,6.029,13.3006,4.60004,2470.11,2020-8-09T09:55:35Z
2020-08-09T07:57:50Z,42.805,6.029,13.3029,4.60006,2470.053,2020-8-09T09:58:39Z
2020-08-09T08:00:53Z,42.805,6.029,13.3011,4.60003,2470.1,2020-8-09T10:01:42Z
2020-08-09T08:03:56Z,42.805,6.029,13.3005,4.60002,2470.087,2020-8-09T10:04:45Z
2020-08-09T08:06:59Z,42.805,6.029,13.3004,4.60014,2470.087,2020-8-09T10:07:48Z
2020-08-09T08:10:03Z,42.805,6.029,13.3041,4.59999,2470.087,2020-8-09T10:10:51Z
2020-08-09T08:13:06Z,42.805,6.029,13.3019,4.60004,2470.087,2020-8-09T10:13:55Z
2020-08-09T08:16:09Z,42.805,6.029,13.3009,4.60011,2470.124,2020-8-09T10:16:58Z
2020-08-09T08:19:12Z,42.805,6.029,13.3036,4.60015,2470.11,2020-8-09T10:20:01Z
2020-08-09T08:22:16Z,42.805,6.029,13.3026,4.60014,2470.1,2020-8-09T10:23:04Z
2020-08-09T08:25:19Z,42.805,6.029,13.3025,4.60006,2470.087,2020-8-09T10:26:08Z
2020-08-09T08:28:22Z,42.805,6.029,13.3023,4.60010,2470.11,2020-8-09T10:29:11Z
2020-08-09T08:31:25Z,42.805,6.029,13.3006,4.60016,2470.1,2020-8-09T10:32:14Z
2020-08-09T08:34:29Z,42.805,6.029,13.3038,4.60007,2470.11,2020-8-09T10:35:17Z
2020-08-09T08:37:32Z,42.805,6.029,13.3013,4.60013,2470.087,2020-8-09T10:38:21Z
2020-08-09T08:40:35Z,42.805,6.029,13.3021,4.60006,2470.133,2020-8-09T10:41:24Z
2020-08-09T08:43:38Z,42.805,6.029,13.3018,4.60008,2470.124,2020-8-09T10:44:27Z
2020-08-09T08:46:42Z,42.805,6.029,13.3019,4.60009,2470.124,2020-8-09T10:47:31Z
2020-08-09T08:49:45Z,42.805,6.029,13.3017,4.60013,2470.156,2020-8-09T10:50:34Z
2020-08-09T08:52:48Z,42.805,6.029,13.3021,4.60028,2470.147,2020-8-09T10:53:37Z
2020-08-09T08:55:52Z,42.805,6.029,13.3032,4.60005,2470.11,2020-8-09T10:56:40Z
2020-08-09T08:58:55Z,42.805,6.029,13.3056,4.60010,2470.124,2020-8-09T10:59:44Z
2020-08-09T09:01:58Z,42.805,6.029,13.3039,4.60014,2470.171,2020-8-09T11:02:47Z
2020-08-09T09:05:01Z,42.805,6.029,13.3031,4.60017,2470.1,2020-8-09T11:05:50Z
2020-08-09T09:08:04Z,42.805,6.029,13.3030,4.60021,2470.133,2020-8-09T11:08:53Z
2020-08-09T09:11:08Z,42.805,6.029,13.3025,4.60014,2470.147,2020-8-09T11:11:56Z
2020-08-09T09:14:11Z,42.805,6.029,13.3026,4.60012,2470.147,2020-8-09T11:15:00Z
2020-08-09T09:17:14Z,42.805,6.029,13.3021,4.60017,2470.171,2020-8-09T11:18:03Z
2020-08-09T09:20:17Z,42.805,6.029,13.3015,4.60021,2470.171,2020-8-09T11:21:06Z
2020-08-09T09:23:20Z,42.805,6.029,13.3043,4.60014,2470.18,2020-8-09T11:24:09Z
2020-08-09T09:26:24Z,42.805,6.029,13.3048,4.60016,2470.133,2020-8-09T11:27:12Z
2020-08-09T09:29:27Z,42.805,6.029,13.3023,4.60016,2470.133,2020-8-09T11:30:16Z
2020-08-09T09:32:30Z,42.805,6.029,13.3052,4.60011,2470.171,2020-8-09T11:33:19Z
2020-08-09T09:35:33Z,42.805,6.029,13.3029,4.60013,2470.171,2020-8-09T11:36:22Z
2020-08-09T09:38:37Z,42.805,6.029,13.3021,4.60010,2470.124,2020-8-09T11:39:25Z
2020-08-09T09:41:40Z,42.805,6.029,13.3040,4.60014,2470.124,2020-8-09T11:42:28Z
2020-08-09T09:44:43Z,42.805,6.029,13.3021,4.60020,2470.194,2020-8-09T11:45:32Z
2020-08-09T09:47:46Z,42.805,6.029,13.3033,4.60011,2470.171,2020-8-09T11:48:35Z
2020-08-09T09:50:49Z,42.805,6.029,13.3024,4.60033,2470.156,2020-8-09T11:51:38Z
2020-08-09T09:53:53Z,42.805,6.029,13.3019,4.60033,2470.133,2020-8-09T11:54:41Z
2020-08-09T09:56:56Z,42.805,6.029,13.3032,4.60029,2470.171,2020-8-09T11:57:45Z
2020-08-09T09:59:59Z,42.805,6.029,13.3043,4.60020,2470.147,2020-8-09T12:00:48Z
2020-08-09T10:03:02Z,42.805,6.029,13.3024,4.60014,2470.147,2020-8-09T12:03:51Z
2020-08-09T10:06:06Z,42.805,6.029,13.3027,4.60019,2470.133,2020-8-09T12:06:54Z
2020-08-09T10:09:09Z,42.805,6.029,13.3029,4.60025,2470.133,2020-8-09T12:09:58Z
2020-08-09T10:12:12Z,42.805,6.029,13.3046,4.60013,2470.156,2020-8-09T12:13:01Z
2020-08-09T10:15:15Z,42.805,6.029,13.3056,4.60009,2470.124,2020-8-09T12:16:04Z
2020-08-09T10:18:19Z,42.805,6.029,13.3028,4.60002,2470.133,2020-8-09T12:19:07Z
2020-08-09T10:21:22Z,42.805,6.029,13.3032,4.60007,2470.156,2020-8-09T12:22:11Z
2020-08-09T10:24:25Z,42.805,6.029,13.3029,4.60005,2470.133,2020-8-09T12:25:14Z
2020-08-09T10:27:28Z,42.805,6.029,13.3041,4.60011,2470.133,2020-8-09T12:28:17Z
2020-08-09T10:30:31Z,42.805,6.029,13.3014,4.60012,2470.156,2020-8-09T12:31:20Z
2020-08-09T10:33:35Z,42.805,6.029,13.3021,4.60016,2470.11,2020-8-09T12:34:23Z
2020-08-09T10:36:38Z,42.805,6.029,13.3021,4.60011,2470.217,2020-8-09T12:37:27Z
2020-08-09T10:39:41Z,42.805,6.029,13.3026,4.60014,2470.133,2020-8-09T12:40:30Z
2020-08-09T10:42:44Z,42.805,6.029,13.3042,4.60009,2470.156,2020-8-09T12:43:33Z
2020-08-09T10:45:48Z,42.805,6.029,13.3019,4.60031,2470.171,2020-8-09T12:46:36Z
2020-08-09T10:48:51Z,42.805,6.029,13.3044,4.60007,2470.147,2020-8-09T12:49:40Z
2020-08-09T10:51:54Z,42.805,6.029,13.3039,4.60009,2470.133,2020-8-09T12:52:43Z
2020-08-09T10:54:57Z,42.805,6.029,13.3032,4.60012,2470.133,2020-8-09T12:55:46Z
2020-08-09T10:58:01Z,42.805,6.029,13.3046,4.59999,2470.171,2020-8-09T12:58:49Z
2020-08-09T11:01:04Z,42.805,6.029,13.3034,4.60010,2470.171,2020-8-09T13:01:53Z
2020-08-09T11:04:07Z,42.805,6.029,13.3019,4.60003,2470.171,2020-8-09T13:04:56Z
2020-08-09T11:07:10Z,42.805,6.029,13.3034,4.60001,2470.133,2020-8-09T13:07:59Z
2020-08-09T11:10:13Z,42.805,6.029,13.3016,4.60009,2470.133,2020-8-09T13:11:02Z
2020-08-09T11:13:17Z,42.805,6.029,13.3011,4.60004,2470.156,2020-8-09T13:14:05Z
2020-08-09T11:16:20Z,42.805,6.029,13.3014,4.60010,2470.11,2020-8-09T13:17:09Z
2020-08-09T11:19:23Z,42.805,6.029,13.3012,4.60003,2470.147,2020-8-09T13:20:12Z
2020-08-09T11:22:27Z,42.805,6.029,13.3046,4.60017,2470.124,2020-8-09T13:23:15Z
2020-08-09T11:25:30Z,42.805,6.029,13.3058,4.60005,2470.124,2020-8-09T13:26:19Z
2020-08-09T11:28:33Z,42.805,6.029,13.3032,4.60019,2470.11,2020-8-09T13:29:22Z
2020-08-09T11:31:36Z,42.805,6.029,13.3019,4.60010,2470.171,2020-8-09T13:32:25Z
2020-08-09T11:34:40Z,42.805,6.029,13.3018,4.60009,2470.11,2020-8-09T13:35:28Z
2020-08-09T11:37:43Z,42.805,6.029,13.3014,4.60011,2470.1,2020-8-09T13:38:31Z
2020-08-09T11:40:46Z,42.805,6.029,13.3040,4.60009,2470.133,2020-8-09T13:41:35Z
2020-08-09T11:43:49Z,42.805,6.029,13.3023,4.60012,2470.11,2020-8-09T13:44:38Z
2020-08-09T11:46:53Z,42.805,6.029,13.3028,4.60011,2470.147,2020-8-09T13:47:41Z
2020-08-09T11:49:56Z,42.805,6.029,13.3028,4.60015,2470.147,2020-8-09T13:50:45Z
2020-08-09T11:52:59Z,42.805,6.029,13.3023,4.60009,2470.124,2020-8-09T13:53:48Z
2020-08-09T11:56:02Z,42.805,6.029,13.3061,4.60009,2470.147,2020-8-09T13:56:51Z
2020-08-09T11:59:06Z,42.805,6.029,13.3018,4.60016,2470.133,2020-8-09T13:59:54Z
2020-08-09T12:02:09Z,42.805,6.029,13.3015,4.60003,2470.11,2020-8-09T14:02:58Z
2020-08-09T12:05:12Z,42.805,6.029,13.3021,4.60011,2470.147,2020-8-09T14:06:01Z
2020-08-09T12:08:15Z,42.805,6.029,13.3044,4.60009,2470.147,2020-8-09T14:09:04Z
2020-08-09T12:11:19Z,42.805,6.029,13.3016,4.60014,2470.124,2020-8-09T14:12:07Z
2020-08-09T12:14:22Z,42.805,6.029,13.3024,4.60020,2470.147,2020-8-09T14:15:11Z
2020-08-09T12:17:25Z,42.805,6.029,13.3021,4.60013,2470.124,2020-8-09T14:18:14Z
2020-08-09T12:20:28Z,42.805,6.029,13.3019,4.60013,2470.11,2020-8-09T14:21:17Z
2020-08-09T12:23:32Z,42.805,6.029,13.3036,4.60016,2470.124,2020-8-09T14:24:20Z
2020-08-09T12:26:35Z,42.805,6.029,13.3056,4.60017,2470.087,2020-8-09T14:27:23Z
2020-08-09T12:29:38Z,42.805,6.029,13.3025,4.60019,2470.1,2020-8-09T14:30:27Z
2020-08-09T12:32:41Z,42.805,6.029,13.3011,4.60010,2470.124,2020-8-09T14:33:30Z
2020-08-09T12:35:44Z,42.805,6.029,13.3015,4.60024,2470.1,2020-8-09T14:36:33Z
2020-08-09T12:38:48Z,42.805,6.029,13.3025,4.60000,2470.11,2020-8-09T14:39:36Z
2020-08-09T12:41:51Z,42.805,6.029,13.3026,4.60014,2470.087,2020-8-09T14:42:40Z
2020-08-09T12:44:54Z,42.805,6.029,13.3011,4.60006,2470.133,2020-8-09T14:45:43Z
2020-08-09T12:47:57Z,42.805,6.029,13.3026,4.60019,2470.1,2020-8-09T14:48:46Z
2020-08-09T12:51:01Z,42.805,6.029,13.3020,4.60021,2470.087,2020-8-09T14:51:49Z
2020-08-09T12:54:04Z,42.805,6.029,13.3018,4.60014,2470.124,2020-8-09T14:54:53Z
2020-08-09T12:57:07Z,42.805,6.029,13.3041,4.60013,2470.1,2020-8-09T14:57:56Z
2020-08-09T13:00:10Z,42.805,6.029,13.3027,4.60025,2470.11,2020-8-09T15:00:59Z
2020-08-09T13:03:14Z,42.805,6.029,13.3019,4.60036,2470.124,2020-8-09T15:04:02Z
2020-08-09T13:06:17Z,42.805,6.029,13.3024,4.60007,2470.1,2020-8-09T15:07:05Z
2020-08-09T13:09:20Z,42.805,6.029,13.3037,4.60027,2470.053,2020-8-09T15:10:09Z
2020-08-09T13:12:23Z,42.805,6.029,13.3026,4.60037,2470.1,2020-8-09T15:13:12Z
2020-08-09T13:15:26Z,42.805,6.029,13.3026,4.60015,2470.087,2020-8-09T15:16:15Z
2020-08-09T13:18:30Z,42.805,6.029,13.3015,4.60016,2470.1,2020-8-09T15:19:18Z
2020-08-09T13:21:33Z,42.805,6.029,13.3049,4.60026,2470.087,2020-8-09T15:22:22Z
2020-08-09T13:24:36Z,42.805,6.029,13.3030,4.60022,2470.1,2020-8-09T15:25:25Z
2020-08-09T13:27:39Z,42.805,6.029,13.3031,4.60015,2470.087,2020-8-09T15:28:28Z
2020-08-09T13:30:43Z,42.805,6.029,13.2996,4.60026,2470.087,2020-8-09T15:31:31Z
2020-08-09T13:33:46Z,42.805,6.029,13.3024,4.60035,2470.063,2020-8-09T15:34:35Z
2020-08-09T13:36:49Z,42.805,6.029,13.3011,4.60048,2470.1,2020-8-09T15:37:38Z
2020-08-09T13:39:52Z,42.805,6.029,13.3014,4.60039,2470.1,2020-8-09T15:40:41Z
2020-08-09T13:42:55Z,42.805,6.029,13.3072,4.60036,2470.077,2020-8-09T15:43:44Z
2020-08-09T13:45:59Z,42.805,6.029,13.3036,4.60023,2470.087,2020-8-09T15:46:47Z
2020-08-09T13:49:02Z,42.805,6.029,13.3009,4.60014,2470.077,2020-8-09T15:49:51Z
2020-08-09T13:52:05Z,42.805,6.029,13.3028,4.60011,2470.053,2020-8-09T15:52:54Z
2020-08-09T13:55:08Z,42.805,6.029,13.3022,4.60008,2470.063,2020-8-09T15:55:57Z
2020-08-09T13:58:11Z,42.805,6.029,13.3016,4.60020,2470.04,2020-8-09T15:59:00Z
2020-08-09T14:01:15Z,42.805,6.029,13.3023,4.60025,2470.077,2020-8-09T16:02:03Z
2020-08-09T14:04:18Z,42.805,6.029,13.3029,4.60011,2470.053,2020-8-09T16:05:07Z
2020-08-09T14:07:21Z,42.805,6.029,13.3018,4.60033,2470.053,2020-8-09T16:08:10Z
2020-08-09T14:10:24Z,42.805,6.029,13.3028,4.60009,2470.063,2020-8-09T16:11:13Z
2020-08-09T14:13:28Z,42.805,6.029,13.3014,4.60017,2470.063,2020-8-09T16:14:16Z
2020-08-09T14:16:31Z,42.805,6.029,13.3024,4.60014,2470.1,2020-8-09T16:17:20Z
2020-08-09T14:19:34Z,42.805,6.029,13.2986,4.60014,2470.063,2020-8-09T16:20:23Z
2020-08-09T14:22:37Z,42.805,6.029,13.3036,4.60010,2470.03,2020-8-09T16:23:26Z
2020-08-09T14:25:40Z,42.805,6.029,13.3015,4.60019,2470.053,2020-8-09T16:26:29Z
2020-08-09T14:28:44Z,42.805,6.029,13.3022,4.60019,2470.03,2020-8-09T16:29:32Z
2020-08-09T14:31:47Z,42.805,6.029,13.3029,4.60024,2470.063,2020-8-09T16:32:36Z
2020-08-09T14:34:50Z,42.805,6.029,13.3006,4.60016,2470.053,2020-8-09T16:35:39Z
2020-08-09T14:37:53Z,42.805,6.029,13.3016,4.60003,2470.017,2020-8-09T16:38:42Z
2020-08-09T14:40:56Z,42.805,6.029,13.3019,4.60019,2470.04,2020-8-09T16:41:45Z
2020-08-09T14:44:00Z,42.805,6.029,13.3007,4.60026,2470.077,2020-8-09T16:44:48Z
2020-08-09T14:47:03Z,42.805,6.029,13.2991,4.60020,2470.063,2020-8-09T16:47:52Z
2020-08-09T14:50:06Z,42.805,6.029,13.3031,4.60033,2470.077,2020-8-09T16:50:55Z
2020-08-09T14:53:10Z,42.805,6.029,13.3043,4.60038,2470.03,2020-8-09T16:53:58Z
2020-08-09T14:56:13Z,42.805,6.029,13.3041,4.60024,2470.053,2020-8-09T16:57:01Z
2020-08-09T14:59:16Z,42.805,6.029,13.3024,4.60009,2470.04,2020-8-09T17:00:05Z
2020-08-09T15:02:19Z,42.805,6.029,13.3030,4.60011,2470.087,2020-8-09T17:03:08Z
2020-08-09T15:05:23Z,42.805,6.029,13.3029,4.60025,2470.03,2020-8-09T17:06:11Z
2020-08-09T15:08:26Z,42.805,6.029,13.3031,4.60011,2470.077,2020-8-09T17:09:14Z
2020-08-09T15:11:29Z,42.805,6.029,13.3012,4.60029,2470.063,2020-8-09T17:12:18Z
2020-08-09T15:14:32Z,42.805,6.029,13.3014,4.60016,2470.053,2020-8-09T17:15:21Z